• In Latvia
  • List of Countries
  • For 7 days
  • Water Temperature
  • Satellite Maps
  • Weather Map
  • Weather Widgets
  • user-avatar
    Login

    Hourly Weather Kitzbuhel

    Today, 23 October, Tuesday

    Time Temperature Precipitation Wind Pressure Humidity
    00:00 +3°C° 0 mm 2 mps 683 mmHg 92%
    01:00 +3°C° 0 mm 2 mps 683 mmHg 92%
    02:00 +3°C° 0 mm 2 mps 683 mmHg 91%
    03:00 +3°C° 0 mm 2 mps 683 mmHg 91%
    04:00 +2°C° 0 mm 2 mps 683 mmHg 91%
    05:00 +2°C° 0 mm 2 mps 683 mmHg 90%
    06:00 +2°C° 0 mm 2 mps 683 mmHg 88%
    07:00 +2°C° 0 mm 2 mps 683 mmHg 87%
    08:00 +5°C° 0 mm 2 mps 683 mmHg 75%
    09:00 +8°C° 0 mm 2 mps 683 mmHg 63%
    10:00 +10°C° 0 mm 2 mps 683 mmHg 51%
    11:00 +12°C° 0 mm 2 mps 683 mmHg 48%
    12:00 +13°C° 0 mm 2 mps 682 mmHg 45%
    13:00 +13°C° 0 mm 3 mps 682 mmHg 42%
    14:00 +12°C° 0 mm 3 mps 682 mmHg 47%
    15:00 +12°C° 0 mm 2 mps 681 mmHg 51%
    16:00 +12°C° 0 mm 2 mps 681 mmHg 56%
    17:00 +9°C° 0 mm 2 mps 681 mmHg 62%
    18:00 +8°C° 0 mm 2 mps 680 mmHg 67%
    19:00 +6°C° 0 mm 2 mps 680 mmHg 73%
    20:00 +6°C° 0.1 mm 2 mps 680 mmHg 71%
    21:00 +7°C° 0.1 mm 3 mps 680 mmHg 69%
    22:00 +7°C° 0.1 mm 3 mps 680 mmHg 68%
    23:00 +7°C° 0.2 mm 3 mps 680 mmHg 69%

    Tomorrow, 24 October, Wednesday

    Time Temperature Precipitation Wind Pressure Humidity
    00:00 +7°C° 0.2 mm 3 mps 680 mmHg 70%
    01:00 +7°C° 0.2 mm 3 mps 679 mmHg 71%
    02:00 +7°C° 0.3 mm 3 mps 679 mmHg 74%
    03:00 +7°C° 0.3 mm 3 mps 679 mmHg 78%
    04:00 +7°C° 0.3 mm 3 mps 678 mmHg 81%
    05:00 +6°C° 0.8 mm 4 mps 678 mmHg 84%
    06:00 +6°C° 0.8 mm 4 mps 678 mmHg 87%
    07:00 +6°C° 0.8 mm 4 mps 677 mmHg 90%
    08:00 +7°C° 1.9 mm 4 mps 677 mmHg 91%
    09:00 +7°C° 1.9 mm 4 mps 677 mmHg 91%
    10:00 +7°C° 1.9 mm 4 mps 677 mmHg 92%
    11:00 +7°C° 1.7 mm 4 mps 677 mmHg 93%
    12:00 +7°C° 1.7 mm 4 mps 677 mmHg 93%
    13:00 +7°C° 1.7 mm 4 mps 677 mmHg 94%
    14:00 +7°C° 1.6 mm 4 mps 677 mmHg 94%
    15:00 +7°C° 1.6 mm 4 mps 677 mmHg 94%
    16:00 +7°C° 1.6 mm 4 mps 677 mmHg 95%
    17:00 +7°C° 1.2 mm 4 mps 678 mmHg 95%
    18:00 +8°C° 1.2 mm 3 mps 678 mmHg 95%
    19:00 +8°C° 1.2 mm 3 mps 679 mmHg 96%
    20:00 +8°C° 1.1 mm 3 mps 679 mmHg 96%
    21:00 +8°C° 1.1 mm 3 mps 679 mmHg 96%
    22:00 +8°C° 1.1 mm 3 mps 679 mmHg 96%
    23:00 +8°C° 0.5 mm 3 mps 680 mmHg 96%

    Day after tomorrow, 25 October, Thursday

    Time Temperature Precipitation Wind Pressure Humidity
    00:00 +8°C° 0.5 mm 2 mps 680 mmHg 96%
    01:00 +8°C° 0.5 mm 2 mps 680 mmHg 97%
    02:00 +8°C° 0.3 mm 2 mps 679 mmHg 97%
    03:00 +7°C° 0.3 mm 2 mps 679 mmHg 97%
    04:00 +7°C° 0.3 mm 2 mps 679 mmHg 97%
    05:00 +7°C° 0 mm 2 mps 679 mmHg 97%
    06:00 +7°C° 0 mm 2 mps 679 mmHg 97%
    07:00 +7°C° 0 mm 2 mps 679 mmHg 97%
    08:00 +8°C° 0 mm 2 mps 679 mmHg 92%
    09:00 +9°C° 0 mm 2 mps 679 mmHg 88%
    10:00 +12°C° 0 mm 2 mps 679 mmHg 84%
    11:00 +13°C° 0 mm 2 mps 679 mmHg 79%
    12:00 +13°C° 0 mm 2 mps 678 mmHg 74%
    13:00 +14°C° 0 mm 2 mps 678 mmHg 68%
    14:00 +14°C° 0 mm 2 mps 678 mmHg 72%
    15:00 +13°C° 0 mm 2 mps 677 mmHg 75%
    16:00 +13°C° 0 mm 1 mps 677 mmHg 78%
    17:00 +11°C° 0 mm 1 mps 677 mmHg 82%
    18:00 +9°C° 0 mm 1 mps 677 mmHg 87%
    19:00 +8°C° 0 mm 1 mps 677 mmHg 91%
    20:00 +8°C° 0 mm 1 mps 677 mmHg 89%
    21:00 +8°C° 0 mm 1 mps 677 mmHg 88%
    22:00 +7°C° 0 mm 1 mps 677 mmHg 86%
    23:00 +7°C° 0 mm 1 mps 676 mmHg 84%

    26 October, Friday

    Time Temperature Precipitation Wind Pressure Humidity
    00:00 +6°C° 0 mm 1 mps 676 mmHg 81%
    01:00 +6°C° 0 mm 1 mps 676 mmHg 79%
    02:00 +6°C° 0 mm 1 mps 675 mmHg 75%
    03:00 +6°C° 0 mm 1 mps 675 mmHg 71%
    04:00 +5°C° 0 mm 1 mps 674 mmHg 67%
    05:00 +5°C° 0 mm 1 mps 674 mmHg 66%
    06:00 +5°C° 0 mm 1 mps 674 mmHg 65%
    07:00 +5°C° 0 mm 1 mps 673 mmHg 64%
    08:00 +8°C° 0 mm 1 mps 673 mmHg 61%
    09:00 +10°C° 0 mm 1 mps 673 mmHg 58%
    10:00 +13°C° 0 mm 1 mps 674 mmHg 55%
    11:00 +14°C° 0 mm 1 mps 673 mmHg 53%
    12:00 +15°C° 0 mm 1 mps 673 mmHg 52%
    13:00 +16°C° 0 mm 1 mps 673 mmHg 50%
    14:00 +15°C° 0 mm 1 mps 672 mmHg 57%
    15:00 +14°C° 0 mm 1 mps 671 mmHg 64%
    16:00 +13°C° 0 mm 1 mps 671 mmHg 71%
    17:00 +11°C° 0 mm 1 mps 671 mmHg 76%
    18:00 +10°C° 0 mm 1 mps 670 mmHg 82%
    19:00 +7°C° 0 mm 2 mps 670 mmHg 87%
    20:00 +7°C° 0 mm 2 mps 670 mmHg 87%
    21:00 +8°C° 0 mm 1 mps 670 mmHg 87%
    22:00 +8°C° 0 mm 1 mps 670 mmHg 87%
    23:00 +8°C° 0.1 mm 1 mps 670 mmHg 88%

    27 October, Saturday

    Time Temperature Precipitation Wind Pressure Humidity
    00:00 +8°C° 0.1 mm 1 mps 669 mmHg 89%
    01:00 +8°C° 0.1 mm 1 mps 669 mmHg 90%
    02:00 +8°C° 0.4 mm 1 mps 668 mmHg 92%
    03:00 +7°C° 0.4 mm 2 mps 668 mmHg 93%
    04:00 +7°C° 0.4 mm 2 mps 668 mmHg 95%
    05:00 +6°C° 1.8 mm 2 mps 667 mmHg 96%
    06:00 +6°C° 1.8 mm 2 mps 667 mmHg 97%
    07:00 +6°C° 1.8 mm 1 mps 667 mmHg 97%
    08:00 +5°C° 2 mm 2 mps 667 mmHg 97%
    09:00 +5°C° 2 mm 2 mps 668 mmHg 96%
    10:00 +4°C° 2 mm 2 mps 668 mmHg 96%
    11:00 +4°C° 1.8 mm 2 mps 667 mmHg 96%
    12:00 +3°C° 1.8 mm 2 mps 667 mmHg 95%
    13:00 +3°C° 1.8 mm 2 mps 667 mmHg 95%
    14:00 +3°C° 1.7 mm 2 mps 667 mmHg 95%
    15:00 +2°C° 1.7 mm 2 mps 666 mmHg 95%
    16:00 +2°C° 1.7 mm 2 mps 666 mmHg 95%
    17:00 +1°C° 2.3 mm 2 mps 666 mmHg 96%
    18:00 +1°C° 2.3 mm 2 mps 666 mmHg 96%
    19:00 -1°C° 2.3 mm 2 mps 666 mmHg 97%
    20:00 -1°C° 2.3 mm 2 mps 666 mmHg 97%
    21:00 -1°C° 2.3 mm 2 mps 666 mmHg 97%
    22:00 -1°C° 2.3 mm 2 mps 665 mmHg 97%
    23:00 -2°C° 1.1 mm 2 mps 665 mmHg 97%

    28 October, Sunday

    Time Temperature Precipitation Wind Pressure Humidity
    00:00 -2°C° 1.1 mm 2 mps 665 mmHg 97%
    01:00 -2°C° 1.1 mm 2 mps 665 mmHg 97%
    02:00 -2°C° 0.9 mm 2 mps 665 mmHg 97%
    03:00 -2°C° 0.9 mm 2 mps 664 mmHg 98%
    04:00 -3°C° 0.9 mm 2 mps 664 mmHg 98%
    05:00 -3°C° 1.2 mm 2 mps 665 mmHg 98%
    06:00 -3°C° 1.2 mm 2 mps 665 mmHg 98%
    07:00 -3°C° 1.2 mm 2 mps 666 mmHg 98%
    08:00 0°C° 0.6 mm 1 mps 667 mmHg 97%
    09:00 0°C° 0.6 mm 1 mps 668 mmHg 96%
    10:00 +1°C° 0.6 mm 1 mps 668 mmHg 96%
    11:00 +1°C° 0.2 mm 1 mps 669 mmHg 94%
    12:00 +1°C° 0.2 mm 1 mps 669 mmHg 92%
    13:00 +2°C° 0.2 mm 1 mps 669 mmHg 91%
    14:00 +2°C° 0.1 mm 1 mps 670 mmHg 92%
    15:00 +1°C° 0.1 mm 1 mps 670 mmHg 93%
    16:00 +1°C° 0.1 mm 1 mps 670 mmHg 95%
    17:00 0°C° 0.2 mm 1 mps 670 mmHg 95%
    18:00 0°C° 0.2 mm 1 mps 670 mmHg 96%
    19:00 -1°C° 0.2 mm 1 mps 671 mmHg 96%
    20:00 -2°C° 0.3 mm 1 mps 671 mmHg 96%
    21:00 -2°C° 0.3 mm 1 mps 671 mmHg 96%
    22:00 -2°C° 0.3 mm 1 mps 672 mmHg 96%
    23:00 -2°C° 0.4 mm 1 mps 671 mmHg 96%

    29 October, Monday

    Time Temperature Precipitation Wind Pressure Humidity
    00:00 -2°C° 0.4 mm 1 mps 671 mmHg 97%
    01:00 -2°C° 0.4 mm 1 mps 671 mmHg 97%
    02:00 -3°C° 0.2 mm 1 mps 671 mmHg 97%
    03:00 -3°C° 0.2 mm 1 mps 671 mmHg 97%
    04:00 -3°C° 0.2 mm 1 mps 671 mmHg 97%
    05:00 -3°C° 0.3 mm 1 mps 671 mmHg 97%
    06:00 -3°C° 0.3 mm 1 mps 671 mmHg 97%
    07:00 -3°C° 0.3 mm 1 mps 671 mmHg 97%
    08:00 -2°C° 0.3 mm 1 mps 671 mmHg 97%
    09:00 -1°C° 0.3 mm 1 mps 671 mmHg 96%
    10:00 -2°C° 0.3 mm 2 mps 671 mmHg 96%
    11:00 -2°C° 0.3 mm 2 mps 671 mmHg 96%
    12:00 -1°C° 0.3 mm 2 mps 671 mmHg 96%
    13:00 -1°C° 0.3 mm 2 mps 670 mmHg 96%
    14:00 -1°C° 0.3 mm 2 mps 670 mmHg 96%
    15:00 -1°C° 0.3 mm 2 mps 670 mmHg 96%
    16:00 -1°C° 0.3 mm 2 mps 669 mmHg 97%
    17:00 -2°C° 0.4 mm 2 mps 669 mmHg 97%
    18:00 -2°C° 0.4 mm 2 mps 669 mmHg 97%
    19:00 -3°C° 0.4 mm 2 mps 669 mmHg 98%
    20:00 -3°C° 0.5 mm 2 mps 669 mmHg 98%
    21:00 -3°C° 0.5 mm 2 mps 668 mmHg 97%
    22:00 -3°C° 0.5 mm 2 mps 668 mmHg 97%
    23:00 -3°C° 0.4 mm 2 mps 667 mmHg 97%
    Show more